Flag for Austria Weather past 2 weeks in Leonding, Upper Austria, Austria

Now
43 °F

Partly sunny.


Feels Like: 34 °F
Forecast: 35 / 45 °F
Wind: 21 mph from West

Location: Linz / Hoersching-Flughafen

Current Time: Dec 22, 2014 at 11:48:57 AM

Latest Report: Dec 22, 2014 at 10:50 AM


Visibility: N/A

Pressure: 30.27 "Hg

Humidity: 71%

Dew point: 34 °F

Location of LeondingLocation

Historic Weather in Leonding — Graph

°F

Leonding temperature yesterday

Maximum temperature yesterday: 43 °F (at 12:50 PM)
Minimum temperature yesterday: 36 °F (at 2:20 AM)
Average temperature yesterday: 40 °F

Past Weeks' High & Low Weather Summary

 TemperatureHumidityPressure
High57 °F (Dec 19, 1:50 PM)100% (Dec 8, 9:50 PM)30.48 "Hg (Dec 8, 9:50 PM)
Low30 °F (Dec 9, 8:50 PM)50% (Dec 12, 1:20 PM)29.83 "Hg (Dec 12, 2:20 PM)
Average40 °F85%30.09 "Hg
* Reported Dec 7 10:20 AM — Dec 22 10:50 AM, Leonding, Weather by CustomWeather, © 2014

Note: Actual official high and low records may vary slightly from our data, if they occured in-between our weather recording intervals... More about our weather records

Advertising

Leonding weather history for previous 24 hours

 ConditionsComfort  
Time TempWeatherWind HumidityBarometerVisibility
10:50 AM
Dec 22
43 °FPartly sunny.21 mph71%30.27 "HgN/A
10:20 AM41 °FPartly sunny.21 mph70%30.30 "HgN/A
9:50 AM41 °FPartly sunny.22 mph70%30.30 "HgN/A
9:20 AM41 °FPartly sunny.22 mph70%30.30 "HgN/A
8:50 AM41 °FPartly sunny.25 mph70%30.27 "HgN/A
8:20 AM41 °FPartly sunny.22 mph70%30.27 "HgN/A
7:50 AM41 °FPassing clouds.20 mph70%30.30 "HgN/A
7:20 AM41 °FPassing clouds.17 mph70%30.27 "HgN/A
6:50 AM41 °FPassing clouds.18 mph70%30.27 "HgN/A
6:20 AM41 °FPassing clouds.18 mph70%30.27 "HgN/A
5:50 AM41 °FPassing clouds.16 mph70%30.30 "HgN/A
5:20 AM41 °FPassing clouds.17 mph70%30.30 "HgN/A
4:20 AM41 °FPassing clouds.17 mph70%30.30 "HgN/A
3:50 AM41 °FPassing clouds.17 mph70%30.30 "HgN/A
3:20 AM41 °FPassing clouds.16 mph70%30.30 "HgN/A
2:50 AM41 °FPassing clouds.18 mph70%30.33 "HgN/A
2:20 AM41 °FClear.16 mph70%30.33 "Hg10 mi
1:50 AM41 °FClear.17 mph70%30.33 "Hg10 mi
1:20 AM41 °FClear.16 mph70%30.33 "Hg10 mi
12:50 AM41 °FClear.16 mph70%30.36 "Hg10 mi
12:20 AM41 °FClear.15 mph70%30.36 "Hg10 mi
11:50 PM
Dec 21
41 °FClear.14 mph70%30.36 "Hg10 mi
11:20 PM41 °FClear.16 mph70%30.36 "Hg10 mi
10:50 PM41 °FClear.17 mph70%30.36 "Hg10 mi
10:20 PM39 °FClear.9 mph75%30.39 "Hg10 mi
9:50 PM39 °FPassing clouds.6 mph75%30.39 "HgN/A
9:20 PM37 °FPassing clouds.7 mph81%30.39 "HgN/A
8:50 PM37 °FClear.6 mph81%30.39 "Hg10 mi
8:20 PM39 °FPassing clouds.5 mph75%30.42 "HgN/A
7:50 PM39 °FPassing clouds.6 mph75%30.42 "HgN/A
7:20 PM39 °FPassing clouds.9 mph75%30.42 "HgN/A
6:50 PM41 °FPassing clouds.13 mph70%30.42 "HgN/A
6:20 PM41 °FPassing clouds.13 mph70%30.42 "HgN/A
5:50 PM41 °FPassing clouds.13 mph70%30.42 "HgN/A
5:20 PM41 °FPassing clouds.10 mph70%30.42 "HgN/A
4:50 PM43 °FPassing clouds.12 mph66%30.42 "HgN/A
4:20 PM43 °FPassing clouds.14 mph66%30.42 "HgN/A
3:50 PM43 °FBroken clouds.12 mph71%30.42 "HgN/A
3:20 PM43 °FBroken clouds.14 mph76%30.42 "HgN/A
2:50 PM43 °FScattered clouds.13 mph71%30.42 "HgN/A
2:20 PM43 °FBroken clouds.18 mph71%30.42 "HgN/A
1:50 PM43 °FBroken clouds.21 mph71%30.42 "HgN/A
1:20 PM43 °FBroken clouds.18 mph71%30.42 "HgN/A
12:50 PM43 °FPartly sunny.17 mph76%30.45 "HgN/A
12:20 PM41 °FBroken clouds.17 mph76%30.45 "HgN/A
11:50 AM41 °FPartly sunny.15 mph81%30.45 "HgN/A
11:20 AM41 °FSprinkles. Partly sunny.22 mph76%30.45 "HgN/A
Weather by CustomWeather, © 2014

See weather overviewHow to use our weather pages